Regional Weather Roundup
Issued by NWS

Home | Current Version | Previous Version | Text Only | Print | Product List | Glossary On
Versions: 1 2 3 4 5 6 7 8 9 10 11 12 13 14 15 16 17 18 19 20 21 22 23 24 25 26 27 28 29 30 31 32 33 34 35 36 37 38 39 40 41 42 43 44 45 46 47 48 49 50
000
ASUS44 KEWX 281403
RWRTX
SOUTH TEXAS REGIONAL WEATHER ROUNDUP
NATIONAL WEATHER SERVICE AUSTIN/SAN ANTONIO TX
900 AM CDT TUE JUL 28 2015

NOTE: "FAIR" INDICATED FEW OR NO CLOUDS BELOW 12,000 FEET WITH NO
SIGNIFICANT WEATHER AND/OR OBSTRUCTIONS TO VISIBILITY.

* - THESE STATIONS ARE NOT NWS OR FAA STATIONS...AND ARE NOT SUBJECT
    TO NWS AND FAA QUALITY CONTROL.

TXZ171-172-183>190-281500-
TEXAS HILL COUNTRY AND EDWARDS PLATEAU

CITY           SKY/WX    TMP DP  RH WIND       PRES   REMARKS
JUNCTION       CLOUDY    79  68  69 S10       30.02R
*LLANO         PTSUNNY   79  70  73 S7        30.03R
BURNET         CLOUDY    77  70  79 S12       30.03R
*HORSESHOE BAY PTSUNNY   80  71  75 S8        30.01R
*KERRVILLE     CLOUDY    76  71  84 S10       30.03R
*FREDERICKSBRG CLOUDY    76  67  73 S10G17    30.02R
*ROCKSPRINGS   MOSUNNY   75  68  78 SE13      30.06R HAZE
*BOERNE STAGE  CLOUDY    75  70  83 S6        30.03R
*CASTROVILLE   CLOUDY    79  72  78 S9        30.00R
HONDO          CLOUDY    79  73  82 SE10      30.00S
*UVALDE        CLOUDY    78  73  86 E7        29.99R
DEL RIO        CLOUDY    79  72  79 E13       29.95R
LAUGHLIN AFB   PTSUNNY   79  73  80 SE15      29.96R
CARRIZO SPRGS  CLOUDY    79  73  83 SE6       29.94R
$$

TXZ173-191>194-202-209-217>225-228-281500-
CENTRAL AND SOUTH CENTRAL TEXAS

CITY           SKY/WX    TMP DP  RH WIND       PRES   REMARKS
GEORGETOWN     PTSUNNY   81  72  74 S12       29.99R
AUSTIN/BERGSTM PTSUNNY   79  75  87 S13       29.99R FOG
AUSTIN/MABRY   CLOUDY    80  74  81 S8        30.00R
*AUSTIN/EXEC   MOSUNNY   79  75  89 S7        30.00R
*LAGO VISTA    CLOUDY    79  73  80 S8        30.02R
SAN MARCOS     PTSUNNY   79  75  89 S13G18    30.00R FOG
NEW BRAUNFELS  CLOUDY    81  75  82 S14       29.98R
RANDOLPH AFB   CLOUDY    81  73  78 S12       29.98S
PT SAN ANTONIO CLOUDY    80  74  81 S8        29.98S
SAN ANTONIO    PTSUNNY   82  73  74 S13       29.99S
STINSON FIELD  CLOUDY    81  75  82 SE5       29.97R
*PLEASANTON    PTSUNNY   81  75  82 SE6       29.97S
*LA GRANGE     PTSUNNY   81  78  92 S5        29.97S FOG
*GIDDINGS      PTSUNNY   79  75  86 S7        30.03R FOG
*GONZALES      CLOUDY    79  79 100 S8        29.98R FOG
$$

TXZ163>164-176>182-195>201-210>213-226-227-235-281500-
SOUTHEAST TEXAS

CITY           SKY/WX    TMP DP  RH WIND       PRES   REMARKS
COLLEGE STN    CLOUDY    81  75  82 S8        30.01R
*BRYAN         CLOUDY    80  76  89 S8        30.02R
*CALDWELL      MOSUNNY   79  79 100 SE8       30.03R
*CROCKETT      MOSUNNY   82  79  89 SW7       30.05R HX  93
*BRENHAM       CLOUDY    81  79  94 S5        30.01R FOG
HUNTSVILLE     PTSUNNY   83  76  79 SW10      30.02R HX  91
CONROE         CLOUDY    82  75  79 SW12      30.02R
HOUSTON BUSH   MOSUNNY   84  78  82 VRB6      30.00S HX  95
HOUSTON HOBBY  MOSUNNY   84  77  79 S5        30.00R HX  94
*HOUSTON SW AP SUNNY     81  77  89 CALM      30.01R
PEARLAND       SUNNY     85  77  77 S3        30.02R HX  95
HOUSTON HOOKS  MOSUNNY   84  78  82 VRB5      30.01R HX  95
ELLINGTON FLD  MOSUNNY   84  73  70 S5        30.02R HX  91
SUGAR LAND     MOSUNNY   83  78  85 S5        30.00R HX  93
*HOUSTON EXEC  SUNNY     82  77  83 S7        30.01S HX  91
*CLEVELAND MUN MOSUNNY   82  79  90 S5        30.02R HX  92
*WHARTON       SUNNY     80  79  96 SE5       30.00R
*COLUMBUS      FAIR      79  78  96 CALM      29.99S
*EAGLE LAKE    FOG       77  77  99 E3        29.99R VSB 3/4
$$

TXZ214>216-236>238-281500-
THE UPPER TEXAS COAST

CITY           SKY/WX    TMP DP  RH WIND       PRES   REMARKS
*ORANGE        SUNNY     85  80  85 CALM      30.03R HX  99
PORT ARTHUR    MOSUNNY   86  78  77 SW3       30.01R HX  98
GALVESTON      PTSUNNY   87  77  72 SW8       30.01R HX  99
ANGLETON       SUNNY     86  78  77 SE3       30.00R HX  98
*BAY CITY      SUNNY     84  80  87 S5        29.99R HX  97
PALACIOS       MOSUNNY   86  78  77 S12       29.98R HX  98
$$

TXZ229>234-239>247-281500-
TEXAS COASTAL BEND AND RIO GRANDE PLAINS

CITY           SKY/WX    TMP DP  RH WIND       PRES   REMARKS
VICTORIA       MOSUNNY   81  79  94 S6        29.99R HX  90
*BEEVILLE      CLOUDY    83  80  91 S14       29.96R HX  95
ROCKPORT       SUNNY     86  78  77 S10       29.95S HX  98
*PORT ARANSAS  SUNNY     83  80  89 S7        29.96S HX  95
*PORT LAVACA   MOSUNNY   83  79  88 S7        29.98R HX  94
*INGLESIDE     MOSUNNY   86  79  78 S12       29.95R HX  99
CORPUS CHRISTI PTSUNNY   84  78  82 S15G23    29.95R HX  95
CORPUS NAS     MOSUNNY   85  79  82 SE14      29.95R HX  98
*ROBSTOWN      CLOUDY    84  80  86 S13       29.95R HX  97
ALICE          CLOUDY    83  78  85 SE12      29.94S HX  93
KINGSVILLE NAS MOSUNNY   86  81  85 S17       29.94R HX 102
COTULLA        CLOUDY    82  74  76 S8        29.95R
*FAITH RANCH     N/A     81  73  78 SE7       29.95R
LAREDO         CLOUDY    82  74  77 SE15      29.95R
$$

TXZ248>255-281500-
DEEP SOUTH TEXAS

CITY           SKY/WX    TMP DP  RH WIND       PRES   REMARKS
BROWNSVILLE    MOSUNNY   83  79  88 SE12G20   29.95R HX  94
PORT ISABEL    MOSUNNY   84  79  85 SE15      29.94R HAZE    HX  96
*SOUTH PADRE   SUNNY     81  79  94 SE7       29.95R
HARLINGEN      MOSUNNY   85  80  85 SE12      29.93R HX  99
*HEBBRONVILLE    N/A     80  74  84 SE15      29.95R
MCALLEN        MOSUNNY   87  77  72 SE16G25   29.93R HX  99
*WESLACO       PTSUNNY   83  77  80 SE10G17   29.93R HX  92
FALFURRIAS       N/A     83  77  81 SE14      29.93S HX  93
EDINBURG       PTSUNNY   84  78  81 SE13      29.94R HX  95
*ZAPATA        PTSUNNY   82  74  77 SE9G18    29.92R
$$

TXZ213>215-236>238-242>244-246-247-251-254-255-281500-
CMAN STATIONS

STATION/POSITION TIME  TEMP    WIND        PRES    WAVE
                       AIR SEA DIR/SP/G            HT/PER
                 (UTC) (F)     (DEG/KT/KT) (MB)    (FT/S)
$$

GMZ080-GMZ150>470-281500-
OFFSHORE BUOY REPORTS

STATION/POSITION TIME  TEMP    WIND        PRES    WAVE
                       AIR SEA DIR/SP/G            HT/PER
                 (UTC) (F)     (DEG/KT/KT) (MB)    (FT/S)
$$



USA.gov is the U.S. government's official web portal to all federal, state and local government web resources and services.